#timestamp,LO_Frequency,Hit,StdDev 
1575694815.3,286047002.8,N
1575694835.2,286047002.3,N
1575694855.0,286047002.6,N
1575694855.9,286047002.6,N
1575694875.7,286047003.7,N
1575694895.6,286047004.0,N
1575694915.4,286047001.9,N
1575694935.3,286047002.5,N
1575694955.1,286047001.1,N
1575694956.0,286047001.1,N
1575694975.8,286046998.3,N
1575694995.7,286046998.5,N
1575695015.5,286047000.9,N
1575695035.3,286047000.1,N
1575695055.2,286047000.3,N
1575695075.0,286046999.9,N
1575695075.9,286046999.9,N
1575695095.8,286047000.7,N
1575695115.6,286047000.7,N
1575695135.4,286047000.8,N
1575695155.3,286047002.8,N
1575695175.1,286047000.3,N
1575695195.8,286047000.3,N
1575695215.7,286047002.8,N
1575695235.5,286046998.1,N
1575695255.4,286047000.1,N
1575695275.2,286047001.5,N
1575695295.0,286047002.0,N
1575695295.9,286047002.0,N
1575695315.8,286047002.6,N
1575695335.6,286047001.9,N
1575695355.4,286047001.8,N
1575695375.3,286047001.4,N
1575695395.1,286047003.2,N
1575695415.9,286047001.4,N
1575695435.7,286047004.3,Y
1575695455.5,286047001.9,P
1575695475.4,286047002.6,P
1575695495.2,286047002.3,P
1575695515.0,286047001.2,N
1575695516.0,286047001.2,N
1575695535.8,286047000.9,N
1575695555.6,286047002.6,Y
1575695575.5,286046998.1,P
1575695595.3,286047000.7,N
1575695615.1,286047001.0,N
1575695635.9,286047000.7,N
1575695655.7,286046999.7,N
1575695675.6,286046998.2,N
1575695695.4,286047001.0,N
1575695715.2,286047001.0,N
1575695735.1,286046999.8,N
1575695736.0,286046999.8,N
1575695755.8,286047000.5,N
1575695775.6,286046999.9,N
1575695795.5,286047000.3,N
1575695815.3,286047000.4,N
1575695835.2,286046998.5,N
1575695855.9,286047000.5,N
1575695875.7,286047000.3,N
1575695895.6,286047000.3,N
1575695915.4,286046999.3,N
1575695935.2,286046997.8,N
1575695955.1,286047000.8,N
1575695956.0,286047000.8,N
1575695975.8,286046998.7,N
1575695995.7,286046998.2,N
1575696015.5,286047000.3,N
1575696035.3,286047001.1,N
1575696055.2,286047001.6,N
1575696075.9,286047000.8,N
1575696095.7,286047000.5,N
1575696115.6,286047001.0,N
1575696135.4,286047001.2,N
1575696155.2,286046999.5,N
1575696175.1,286046999.5,N
1575696176.0,286046999.5,N
1575696195.8,286046997.9,N
1575696215.7,286046995.4,Y
1575696235.5,286046995.3,P
1575696255.3,286046995.0,N
1575696275.2,286046994.9,N
1575696295.0,286046995.5,N
1575696295.9,286046995.5,N
1575696315.8,286046995.6,N
1575696335.6,286046994.9,Y
1575696355.4,286046999.7,P
1575696375.3,286047002.4,N
1575696395.1,286047000.8,N
1575696415.8,286047001.7,N
1575696435.7,286047003.7,N
1575696455.5,286047003.4,N
1575696475.4,286047004.4,N
1575696495.2,286047002.6,N
1575696515.0,286046998.1,N
1575696515.9,286046998.1,N
1575696535.8,286047001.0,N
1575696555.6,286047000.7,N
1575696575.4,286046998.9,N
1575696595.3,286046996.5,N
1575696615.1,286046998.6,N
1575696635.9,286047000.8,N
1575696655.7,286047002.3,N
1575696675.5,286046998.2,N
1575696695.4,286046999.5,N
1575696715.2,286046998.9,N
1575696735.0,286046997.5,N
1575696735.9,286046997.5,N
1575696755.8,286046997.1,N
1575696775.6,286047001.2,N
1575696795.5,286047002.2,N
1575696815.3,286047000.3,N
1575696835.1,286047002.8,N
1575696855.9,286046998.5,N
1575696905.7,286047000.7,E
1575696915.7,286046998.6,N
1575696935.5,286046998.4,P
1575696955.3,286047000.6,P
1575696975.2,286046999.0,N
1575696995.0,286046998.1,N
1575696995.9,286046998.1,N
1575697015.7,286046998.5,N
1575697035.6,286046998.8,N
1575697055.4,286046999.4,N
1575697075.3,286046998.8,N
1575697095.1,286046998.2,N
1575697096.0,286046998.2,N
1575697115.8,286047000.8,N
1575697135.7,286047002.8,Y
1575697155.5,286047001.7,P
1575697175.4,286046999.9,N
1575697195.2,286047001.1,N
1575697215.0,286047000.9,N
1575697215.9,286047000.9,N
1575697235.8,286047000.1,N
1575697255.6,286047000.8,N
1575697275.4,286047001.2,N
1575697295.3,286046996.5,Y
1575697315.1,286046995.5,P
1575697335.9,286046994.9,N
1575697355.7,286046995.1,N
1575697375.5,286046995.2,N
1575697395.4,286046996.5,N
1575697415.2,286046998.8,N
1575697435.0,286046999.2,N
1575697435.9,286046999.2,N
1575697455.8,286047001.0,N
1575697475.6,286047001.0,N
1575697495.5,286046998.1,N
1575697515.3,286047001.1,N
1575697535.1,286046998.5,N
1575697555.9,286047001.1,N
1575697575.7,286047000.5,N
1575697595.5,286047000.5,N
1575697615.4,286047000.8,N
1575697635.2,286046999.4,N
1575697655.1,286046998.7,N
1575697656.0,286046998.7,N
1575697675.8,286046998.5,N
1575697695.6,286047000.7,N
1575697715.5,286046999.6,N
1575697735.3,286046995.0,N
1575697755.1,286046998.0,N
1575697775.9,286046997.8,N
1575697795.7,286046997.6,N
1575697815.6,286046995.6,N
1575697835.4,286046995.1,N
1575697855.2,286046997.7,N
1575697875.1,286046996.2,N
1575697876.0,286046996.2,N
1575697895.8,286046995.4,N
1575697915.6,286046997.1,N
1575697935.5,286046997.3,N
1575697955.3,286046997.5,N
1575697975.2,286046996.5,N
1575697995.9,286046997.3,N
1575698015.7,286046996.9,N
1575698035.6,286046999.3,N
1575698055.4,286046996.8,N
1575698075.2,286046996.7,N
1575698095.1,286046998.9,N
1575698096.0,286046998.9,N
1575698115.8,286046999.1,N
1575698135.7,286046996.6,N
1575698155.5,286046997.5,N
1575698175.3,286046996.1,N
1575698195.2,286046996.4,N
1575698215.0,286046995.1,Y
1575698215.9,286046995.1,P
1575698235.8,286046998.7,N
1575698255.6,286046998.4,N
1575698275.4,286046999.0,N
1575698295.3,286046998.8,N
1575698315.1,286046998.7,N
1575698335.9,286046999.1,N
1575698355.7,286046997.1,N
1575698375.5,286046999.4,N
1575698395.4,286046997.3,N
